Fitchburg, MA

8:26 PM EST on November 19, 2019 (GMT -0500)
Fitchburg Municipal

Weather History for KFIT - August, 2019

Change the Weather History Date:

Monday, August 26, 2019

  Actual Average (WUND) Record (WUND)
Temperature  
Mean Temperature 60 °F -  
Max Temperature 75 °F - - (-1)
Min Temperature 46 °F - - (-1)
Degree Days  
Heating Degree Days 6    
Growing Degree Days 10 (Base 50)    
Moisture  
Dew Point 47 °F    
Average Humidity 64    
Maximum Humidity 93    
Minimum Humidity 35    
Precipitation  
Precipitation 0.00 in - - ()
Sea Level Pressure  
Sea Level Pressure 30.24 in    
Wind  
Wind Speed 4 mph ()    
Max Wind Speed 9 mph    
Max Gust Speed -    
Visibility 9.9 miles    
Events      
Averages and records for this station are not official NWS values.
T = Trace of Precipitation, MM = Missing Value Source: Averaged Metar Reports

Daily Weather History Graph

Daily Weather History Graph

Search for Another Location

Airport or City:

Astronomy

Aug. 26, 2019 Rise Set
Actual Time 6:05 AM EDT 7:31 PM EDT
Civil Twilight 5:35 AM EDT 8:01 PM EDT
Nautical Twilight 5:00 AM EDT 8:36 PM EDT
Astronomical Twilight 4:22 AM EDT 9:13 PM EDT
Moon 1:23 AM EDT (8/26) 4:56 PM EDT (8/26)
Length of Visible Light 14h 25m
Length of Day
13h 26m
Waning Crescent, 19% of the Moon is Illuminated
Aug 26
Waning Crescent
Aug 30
New
Sep 5
First Quarter
Sep 14
Full
Sep 21
Last Quarter

Hourly Weather History & Observations

Time (EDT) Temp. Dew Point Humidity Pressure Visibility Wind Dir Wind Speed Gust Speed Precip Events Conditions
12:52 AM 50.0 °F 46.9 °F 89% 30.31 in 10.0 mi North 3.5 mph - N/A   Clear
1:52 AM 48.0 °F 45.0 °F 89% 30.30 in 10.0 mi NNW 3.5 mph - N/A   Clear
2:52 AM 46.9 °F 45.0 °F 93% 30.30 in 10.0 mi NNW 4.6 mph - N/A   Clear
3:52 AM 46.9 °F 45.0 °F 93% 30.29 in 10.0 mi NW 4.6 mph - N/A   Clear
4:52 AM 46.9 °F 44.1 °F 90% 30.27 in 10.0 mi NW 4.6 mph - N/A   Clear
5:52 AM 48.9 °F 45.0 °F 86% 30.28 in 10.0 mi Calm Calm - N/A   Clear
6:52 AM 50.0 °F 46.0 °F 86% 30.30 in 10.0 mi North 3.5 mph - N/A   Clear
7:52 AM 55.9 °F 46.0 °F 69% 30.30 in 10.0 mi NW 3.5 mph - N/A   Clear
8:52 AM 61.0 °F 45.0 °F 56% 30.29 in 10.0 mi Variable 6.9 mph - N/A   Clear
9:52 AM 66.0 °F 45.0 °F 47% 30.29 in 10.0 mi NNE 9.2 mph - N/A   Clear
10:52 AM 69.1 °F 48.0 °F 47% 30.27 in 10.0 mi Variable 4.6 mph - N/A   Clear
11:52 AM 70.0 °F 48.9 °F 47% 30.26 in 10.0 mi NNE 8.1 mph - N/A   Clear
12:52 PM 71.1 °F 48.9 °F 45% 30.25 in 10.0 mi East 6.9 mph - N/A   Partly Cloudy
1:52 PM 73.0 °F 48.0 °F 41% 30.24 in 10.0 mi Variable 6.9 mph - N/A   Clear
2:52 PM 73.9 °F 46.9 °F 38% 30.22 in 10.0 mi NE 6.9 mph - N/A   Clear
3:52 PM 73.0 °F 45.0 °F 37% 30.22 in 10.0 mi East 5.8 mph - N/A   Clear
4:52 PM 73.9 °F 45.0 °F 35% 30.19 in 10.0 mi Variable 5.8 mph - N/A   Clear
5:52 PM 73.0 °F 46.0 °F 38% 30.18 in 10.0 mi East 5.8 mph - N/A   Clear
6:52 PM 70.0 °F 46.0 °F 42% 30.19 in 10.0 mi ESE 4.6 mph - N/A   Clear
7:52 PM 63.0 °F 48.9 °F 60% 30.18 in 8.0 mi Calm Calm - N/A   Clear
8:52 PM 57.9 °F 48.9 °F 72% 30.19 in 10.0 mi NNW 3.5 mph - N/A   Clear
9:52 PM 57.0 °F 48.9 °F 74% 30.19 in 10.0 mi Calm Calm - N/A   Clear
10:52 PM 55.0 °F 48.9 °F 80% 30.18 in 10.0 mi NNW 3.5 mph - N/A   Clear
11:52 PM 54.0 °F 48.9 °F 83% 30.18 in 10.0 mi NNW 3.5 mph - N/A   Clear